Regional Weather Roundup
Issued by NWS

Home | Current Version | Previous Version | Text Only | Print | Product List | Glossary On
Versions: 1 2 3 4 5 6 7 8 9 10 11 12 13 14 15 16 17 18 19 20 21 22 23 24 25 26 27 28 29 30 31 32 33 34 35 36 37 38 39 40 41 42 43 44 45 46 47 48 49 50
000
ASUS43 KDTX 300910
RWRMI
MICHIGAN HOURLY REGIONAL WEATHER ROUNDUP
NATIONAL WEATHER SERVICE DETROIT/PONTIAC MI
500 AM EDT TUE MAY 30 2017

NOTE: "FAIR" INDICATES FEW OR NO CLOUDS BELOW 12,000 FEET WITH NO
SIGNIFICANT WEATHER AND/OR OBSTRUCTION TO VISIBILITY.

MIZ047>049-052>055-059>063-066>070-074>076-081>083-301000-
SOUTHEAST LOWER MICHIGAN

CITY           SKY/WX    TMP DP  RH WIND       PRES   REMARKS
ADRIAN         CLEAR     53  51  93 W3        29.91S
ALMA           CLEAR     51  47  88 SW9       29.87R
ANN ARBOR      CLEAR     45  45 100 CALM      29.89S FOG
BAD AXE        CLEAR     53  46  77 SW6       29.85S
CARO           CLEAR     48  45  88 S3        29.85S
DETROIT CITY   CLOUDY    59  51  75 SW3       29.89R
DETROIT        CLOUDY    57  54  89 SW3       29.90S
FLINT          PTCLDY    53  45  74 SW7       29.88R
GROSSE ILE     CLOUDY    61  51  70 SW3       29.89S
HILLSDALE      CLEAR     54  45  71 CALM      29.90S
HOWELL         CLEAR     53  44  71 SW5       29.88S

CITY           SKY/WX    TMP DP  RH WIND       PRES   REMARKS
JACKSON        CLEAR     52  46  80 SW6       29.89S
LAMBERTVILLE   MOCLDY    59  53  79 CALM      29.90S
LANSING        CLEAR     53  45  74 SW7       29.89R
LAPEER         FAIR      53  46  76 SW6       29.87S
MASON          PTCLDY    53  47  79 S5        29.89S
MONROE         CLOUDY    58  52  79 CALM      29.89S
MT. CLEMENS    PTCLDY    56  51  82 SW3       29.87S
PONTIAC        CLEAR     52  46  80 CALM      29.87F
PORT HOPE        N/A     56  46  69 SW5       29.82R
PORT HURON     CLEAR     52  48  87 CALM      29.88S
TRI CITIES     CLEAR     54  48  80 SW9       29.86R
MIDLAND        FAIR      51  45  79 SW3       29.85R
TROY           PTCLDY    57  46  66 SW3       29.90S
SAGINAW HB     CLEAR     54  43  66 SW7       29.85S
$$
MIZ043>046-050>051-056>058-064>065-071>073-077>080-301000-
SOUTHWEST LOWER MICHIGAN

CITY           SKY/WX    TMP DP  RH WIND       PRES   REMARKS
BATTLE CREEK   MOCLDY    53  47  79 SW7       29.90R
BENTON HARBOR  CLEAR     49  46  90 CALM      29.89S
BIG RAPIDS     CLEAR     46  43  91 CALM      29.84S
COLDWATER      CLEAR     51  47  89 SW3       29.90F
FREMONT        FAIR      48  46  91 SW5       29.85S
HOLLAND        CLEAR     51  46  83 S6        29.88R
GRAND RAPIDS   CLEAR     51  47  86 SW5       29.87R
IONIA          FAIR      53  46  75 SW7       29.87R
KALAMAZOO      PTCLDY    54  46  74 SW5       29.90S
LUDINGTON      PTCLDY    52  49  89 W9        29.83R
MARSHALL       PTCLDY    51  48  90 CALM      29.90R
MOUNT PLEASANT CLEAR     53  45  75 SW5       29.84R
MUSKEGON       CLEAR     56  47  71 SW12      29.86S
SOUTH HAVEN    CLEAR     48  47  96 CALM      29.89S
$$
MIZ016>042-301000-
NORTHERN LOWER MICHIGAN

CITY           SKY/WX    TMP DP  RH WIND       PRES   REMARKS
ALPENA         CLEAR     53  47  79 SW8       29.78R
BEAVER ISLAND  CLOUDY    49  47  93 SW9       29.74S
BELLAIRE       PTCLDY    53  47  82 S5        29.79R
CADILLAC       CLEAR     47  46  94 SW5       29.81S
CHARLEVOIX     PTCLDY    52  49  88 SW10G16   29.79R
FRANKFORT      PTCLDY    49  45  86 CALM      29.81R
GAYLORD        PTCLDY    51  45  79 SW10      29.78R
GRAYLING       CLEAR     50  47  88 SW3       29.81R
HARBOR SPRINGS CLOUDY    51  48  91 W6        29.76R
HOUGHTON LAKE  CLEAR     52  46  80 SW8       29.82R
MANISTEE       CLEAR     52  48  86 W5        29.81S
OSCODA         CLEAR     50  44  81 SW8       29.81R
PELLSTON       PTCLDY    52  46  80 W6        29.75R
ROGERS CITY    MOCLDY    51  46  84 SW7       29.77R
TRAVERSE CITY  CLEAR     53  47  79 SW6       29.78R
$$
MIZ007>008-015-301000-
EASTERN UPPER MICHIGAN

CITY           SKY/WX    TMP DP  RH WIND       PRES   REMARKS
KINROSS        MOCLDY    48  47  96 S6        29.72R
MACKINAC ISLAN PTCLDY    50  48  93 SW9       29.73R
NEWBERRY       CLOUDY    51  50  97 SW5       29.71R
S. S. MARIE    CLOUDY    52  49  89 SW6       29.70R
MUNISING         N/A     53  50  89 W6        29.70R
$$
MIZ004>006-011>014-085-301000-
CENTRAL UPPER MICHIGAN

CITY           SKY/WX    TMP DP  RH WIND       PRES   REMARKS
MANISTIQUE     CLOUDY    52  49  90 SW3       29.73R
ESCANABA       CLOUDY    50  49  96 W5        29.75R
SAWYER-GWINN   PTCLDY    49  45  85 SW6       29.71S
$$
MIZ001>003-009>011-084-301000-
WESTERN UPPER MICHIGAN

CITY           SKY/WX    TMP DP  RH WIND       PRES   REMARKS
IRON MOUNTAIN  CLEAR     49  44  83 W5        29.73S
HOUGHTON       PTCLDY    49  40  71 W17       29.67S
COPPER HARBOR    N/A     52  42  69 NW10G20   29.65R
IRONWOOD       CLOUDY    50  46  86 W8        29.74S
$$

ABBREVIATIONS USED IN REMARKS
   TC - TEMPERATURE IN CELSIUS
  WCI - WIND CHILL INDEX
   HX - HEAT INDEX
  VSB - VISIBILITY




USA.gov is the U.S. government's official web portal to all federal, state and local government web resources and services.